Printer-friendly version

IAU Minor Planet Center

Minor Planet Center

MPEC 2007-F14 : 2007 EK88

The following Minor Planet Electronic Circular may be linked-to from your own Web pages, but must not otherwise be redistributed electronically.


Read MPEC 2007-F13 Read MPEC 2007-F15


M.P.E.C. 2007-F14                                Issued 2007 Mar. 16, 19:39 UT

     The Minor Planet Electronic Circulars contain information on unusual
         minor planets and routine data on comets.  They are published
   on behalf of Commission 20 of the International Astronomical Union by the
          Minor Planet Center, Smithsonian Astrophysical Observatory,
                          Cambridge, MA 02138, U.S.A.

             Prepared using the Tamkin Foundation Computer Network

                              MPC@CFA.HARVARD.EDU
          URL http://cfa-www.harvard.edu/iau/mpc.html  ISSN 1523-6714

                                   2007 EK88

Observations:
     K07E88K* C2007 03 14.38989 13 31 42.28 -13 07 54.0          20.1 V EF014691
     K07E88K  C2007 03 14.39965 13 31 44.47 -13 07 24.8          19.5 V EF014G96
     K07E88K  C2007 03 14.40753 13 31 46.31 -13 07 00.0          20.6 V EF014691
     K07E88K  C2007 03 14.41652 13 31 48.32 -13 06 33.2          19.7 V EF014G96
     K07E88K  C2007 03 14.41670 13 31 48.32 -13 06 31.8          19.9 V EF014703
     K07E88K  C2007 03 14.42374 13 31 49.94 -13 06 10.7          19.2 V EF014703
     K07E88K  C2007 03 14.42491 13 31 50.23 -13 06 07.6          19.7 V EF014G96
     K07E88K  C2007 03 14.42517 13 31 50.32 -13 06 06.6          20.3 V EF014691
     K07E88K  C2007 03 14.43076 13 31 51.67 -13 05 49.8          19.6 V EF014703
     K07E88K  C2007 03 14.43782 13 31 53.14 -13 05 29.5          19.9 V EF014703
     K07E88K  C2007 03 14.47190 13 32 01.02 -13 03 43.4          20.4 V EF014291
     K07E88K  C2007 03 14.47563 13 32 01.88 -13 03 31.9          20.4 V EF014291
     K07E88K  C2007 03 14.47749 13 32 02.29 -13 03 26.5          19.8 V EF014G96
     K07E88K  C2007 03 14.47820 13 32 02.47 -13 03 24.1          19.7 V EF014G96
     K07E88K  C2007 03 14.47854 13 32 02.61 -13 03 24.1          19.0 V EF014703
     K07E88K  C2007 03 14.47892 13 32 02.65 -13 03 22.1          19.9 V EF014G96
     K07E88K  C2007 03 14.47938 13 32 02.73 -13 03 20.6          20.3 V EF014291
     K07E88K  C2007 03 14.47962 13 32 02.79 -13 03 19.9          19.9 V EF014G96
     K07E88K  C2007 03 14.48689 13 32 04.38 -13 02 57.8          19.7 V EF014703
     K07E88K  C2007 03 14.49521 13 32 06.39 -13 02 33.7          19.1 V EF014703
     K07E88K  C2007 03 14.50354 13 32 08.19 -13 02 04.9          19.0 V EF014703
     K07E88K  C2007 03 15.00810 13 34 13.59 -12 36 12.1                 EF014246
     K07E88K  C2007 03 15.00897 13 34 13.68 -12 36 09.9                 EF014246
     K07E88K  C2007 03 15.00983 13 34 13.95 -12 36 05.5                 EF014246
     K07E88K  C2007 03 15.01057 13 34 14.09 -12 36 03.9                 EF014246
     K07E88K  C2007 03 15.01132 13 34 14.27 -12 36 01.7                 EF014246
     K07E88K  C2007 03 15.01267 13 34 14.53 -12 35 58.1                 EF014246
     K07E88K  C2007 03 15.08176 13 34 31.21 -12 32 21.3                 EF014J95
     K07E88K  C2007 03 15.08966 13 34 33.10 -12 31 56.7          19.9 R EF014J95
     K07E88K  C2007 03 15.33200 13 35 33.68 -12 18 59.0          19.6 V EF014G96
     K07E88K  C2007 03 15.33271 13 35 33.82 -12 18 56.7          19.7 V EF014G96
     K07E88K  C2007 03 15.33342 13 35 34.00 -12 18 54.4          19.7 V EF014G96
     K07E88K  C2007 03 15.33413 13 35 34.18 -12 18 52.2          19.7 V EF014G96
     K07E88K  C2007 03 15.33464 13 35 34.31 -12 18 50.1                 EF014291
     K07E88K  C2007 03 15.33840 13 35 35.18 -12 18 38.0                 EF014291
     K07E88K  C2007 03 15.34227 13 35 36.08 -12 18 25.7                 EF014291
     K07E88K  C2007 03 15.39556 13 35 48.28 -12 15 36.5          20.0 R EF014448
     K07E88K  C2007 03 15.41313 13 35 52.41 -12 14 40.3          20.2 R EF014448
     K07E88K  C2007 03 15.42844 13 35 55.95 -12 13 50.8          20.0 R EF014448
     K07E88K 5C2007 03 15.46252 13 36 04.38 -12 12 01.9          19.6 R EF014673
     K07E88K 5C2007 03 15.46834 13 36 05.60 -12 11 44.2                 EF014673
     K07E88K 5C2007 03 15.47708 13 36 07.75 -12 11 15.2                 EF014673
     K07E88K 5C2007 03 15.48346 13 36 09.22 -12 10 54.6                 EF014673
     K07E88K  C2007 03 15.97994 13 38 14.32 -11 44 01.3                 EF014246
     K07E88K  C2007 03 15.98072 13 38 14.60 -11 43 59.6                 EF014246
     K07E88K  C2007 03 15.98166 13 38 14.79 -11 43 54.9                 EF014246
     K07E88K  C2007 03 15.98247 13 38 14.99 -11 43 53.0                 EF014246
     K07E88K  C2007 03 15.98345 13 38 15.22 -11 43 50.4                 EF014246
     K07E88K  C2007 03 15.98414 13 38 15.36 -11 43 46.7                 EF014246
     K07E88K  C2007 03 15.98493 13 38 15.66 -11 43 44.8                 EF014246
     K07E88K  C2007 03 16.31509 13 39 38.62 -11 25 16.3          19.9 R EF014651
     K07E88K  C2007 03 16.31773 13 39 39.08 -11 25 08.8          19.8 R EF014448
     K07E88K  C2007 03 16.31837 13 39 39.36 -11 25 05.3          19.9 R EF014651
     K07E88K  C2007 03 16.33373 13 39 42.84 -11 24 15.2          19.7 R EF014448
     K07E88K  C2007 03 16.34971 13 39 46.64 -11 23 21.3          20.3 R EF014448
     K07E88K  C2007 03 16.40913 13 40 00.80 -11 20 01.2          19.6 V EF014G96
     K07E88K  C2007 03 16.40968 13 40 00.94 -11 19 59.4          19.8 V EF014G96
     K07E88K  C2007 03 16.41020 13 40 01.05 -11 19 57.5          19.7 V EF014G96
     K07E88K  C2007 03 16.41074 13 40 01.20 -11 19 55.8          19.7 V EF014G96
     K07E88K 5C2007 03 16.41863 13 40 03.71 -11 19 25.4          19.7 R EF014673
     K07E88K 5C2007 03 16.42211 13 40 04.43 -11 19 15.0                 EF014673
     K07E88K  C2007 03 16.44079 13 40 07.88 -11 18 17.1          19.3 R EF014734
     K07E88K  C2007 03 16.44238 13 40 08.22 -11 18 11.6          19.9 R EF014734
     K07E88K  C2007 03 16.44391 13 40 08.54 -11 18 05.7          20.2 R EF014734
     K07E88K 5C2007 03 16.44630 13 40 09.93 -11 17 56.1                 EF014673
     K07E88K 5C2007 03 16.45000 13 40 10.63 -11 17 46.1                 EF014673
     K07E88K tC2007 03 16.48119 13 40 17.88 -11 15 56.7          20.4 V EF014291
     K07E88K tC2007 03 16.48621 13 40 19.08 -11 15 39.2          20.5 V EF014291
     K07E88K tC2007 03 16.49025 13 40 20.04 -11 15 25.0          20.5 V EF014291

Observer details:
246 Klet Observatory-KLENOT.  Observer M. Tichy.  1.06-m KLENOT Telescope
    + CCD.
291 LPL/Spacewatch II.  Observers T. H. Bressi, J. V. Scotti.  1.8-m f/2.7
    reflector + CCD.
448 Desert Moon Observatory.  Observer B. L. Stevens.  0.3-m
    Schmidt-Cassegrain + CCD.
651 Grasslands Observatory, Tucson.  Observer J. E. McGaha.  0.62-m f/5.1
    reflector + CCD.
673 Table Mountain Observatory, Wrightwood.  Observer D. Mayes.  0.6-m
    reflector + CCD.
691 Steward Observatory, Kitt Peak.  Observer T. H. Bressi.  0.9-m f/3
    reflector + CCD.
703 Catalina Sky Survey.  Observer R. E. Hill.  Measurers E. C. Beshore,
    E. J. Christensen, G. J. Garradd, A. R. Gibbs, A. D. Grauer, R. E. Hill,
    R. A. Kowalski, S. M. Larson, R. H. McNaught.  0.68-m Schmidt + CCD.
734 Farpoint Observatory.  Observer G. Hug.  0.7-m reflector + CCD.
G96 Mt. Lemmon Survey.  Observer A. R. Gibbs.  Measurers E. C. Beshore,
    E. J. Christensen, G. J. Garradd, A. R. Gibbs, A. D. Grauer, R. E. Hill,
    R. A. Kowalski, S. M. Larson, R. H. McNaught.  1.5-m reflector + CCD.
J95 Great Shefford.  Observer P. Birtwhistle.  0.40-m f/6.0 Schmidt-Cassegrain
    + CCD.

Orbital elements:
2007 EK88                                                Earth MOID = 0.1562 AU
Epoch 2007 Apr. 10.0 TT = JDT 2454200.5                 MPC
M 355.02812              (2000.0)            P               Q
n   0.43350864     Peri.   32.92353     -0.82728671     +0.56175049
a   1.7290367      Node   181.29664     -0.55455067     -0.81823535
e   0.3487812      Incl.   14.72655     -0.08983464     -0.12217732
P   2.27           H   21.7           G   0.15           U   8
Residuals in seconds of arc
070314 691  0.1+  0.1-    070315 246  0.5+  1.2+    070315 246  0.9+  0.1+
070314 G96  0.1+  0.3-    070315 246  0.0   0.5+    070315 246  0.9+  0.5-
070314 691  0.2+  0.3+    070315 246  0.1+  0.3+    070315 246  0.5+  0.9+
070314 G96  0.1+  0.0     070315 246  0.8-  0.3-    070315 246 (2.2+  0.2+)
070314 703  0.5-  0.8+    070315 J95  0.6-  0.1+    070316 651  0.7+  0.5+
070314 703  0.3-  0.4+    070315 J95  0.1-  0.2-    070316 448  0.6+  0.3-
070314 G96  0.0   0.0     070315 G96  0.1-  0.0     070316 651  0.2+  0.5+
070314 691  0.0   0.0     070315 G96  0.5-  0.1+    070316 448  0.2+  0.2-
070314 703  1.5+  0.1-    070315 G96  0.2-  0.1+    070316 448  0.5+  0.1+
070314 703  0.6-  1.4-    070315 G96  0.0   0.1+    070316 G96  0.0   0.1+
070314 291  0.0   0.1+    070315 291  0.4-  0.2+    070316 G96  0.1+  0.0
070314 291  0.0   0.1+    070315 291  0.5-  0.4+    070316 G96  0.0   0.2+
070314 G96  0.1+  0.0     070315 291  0.5-  0.4+    070316 G96  0.3+  0.0
070314 G96  0.3+  0.2+    070315 448  0.0   0.3-    070316 673 (5.5+  4.8+)
070314 703  1.3+  0.8-    070315 448  0.7+  0.6-    070316 673 (4.0+  3.5+)
070314 G96  0.6+  0.0     070315 448  0.4+  0.3-    070316 734  1.0+  0.5-
070314 291  0.2-  0.1-    070315 673  1.0+  0.0     070316 734  0.4+  0.4-
070314 G96  0.2+  0.1+    070315 673  1.0-  1.1-    070316 734  0.3-  0.3+
070314 703  1.0-  0.2-    070315 673  0.5+  0.4-    070316 673  0.7+  0.5+
070314 703  0.3+  1.8-    070315 673  0.2+  0.4-    070316 673  1.9-  2.1-
070314 703  1.6-  1.4+    070315 246  0.0   0.1+    070316 291  0.4-  0.3-
070315 246  1.1+  0.0     070315 246  1.4+  0.7-    070316 291  0.3-  0.1+
070315 246  0.5-  0.5-    070315 246  0.8+  0.9+    070316 291  0.4-  0.5+

Ephemeris:
2007 EK88                a,e,i = 1.73, 0.35, 15                  q = 1.1260
Date    TT    R. A. (2000) Decl.     Delta      r     Elong.  Phase     V
2007 03 11    13 18.40   -15 43.3    0.233    1.192   145.3    28.3    20.2
2007 03 21    13 59.94   -06 31.9    0.192    1.165   149.3    25.9    19.6
2007 03 31    14 47.02   +06 39.2    0.171    1.144   145.7    29.5    19.4
2007 04 10    15 34.68   +20 24.3    0.173    1.131   135.2    38.6    19.7
2007 04 20    16 16.37   +30 52.2    0.192    1.126   125.1    46.9    20.2
2007 04 30    16 48.35   +37 12.4    0.220    1.129   118.5    51.6    20.6
2007 05 10    17 10.36   +40 24.5    0.251    1.140   115.3    53.2    20.9
2007 05 20    17 23.75   +41 23.9    0.282    1.158   114.6    52.6    21.2
2007 05 30    17 30.97   +40 40.5    0.312    1.183   115.8    50.4    21.4
2007 06 09    17 34.36   +38 31.8    0.342    1.215   118.3    47.4    21.6
2007 06 19    17 35.95   +35 07.2    0.372    1.251   121.4    43.9    21.7
2007 06 29    17 37.66   +30 38.3    0.406    1.291   124.7    40.4    21.9

Kyle E. Smalley              (C) Copyright 2007 MPC           M.P.E.C. 2007-F14

Read MPEC 2007-F13 Read MPEC 2007-F15


Our Web policy. Index to the CBAT/MPC/ICQ pages.


Valid HTML 4.01!